Location: Arnolds Mill
(42.3415°N, 73.5951°W)
Time: 11:30:17
(UTC+00:00)

BlueWalker 3 - Pass Details

Date: 27 June 2024
Orbit: 480 x 492 km, 53.2° (Epoch: 13 July)

Event Time Altitude Azimuth Distance (km) Brightness Sun altitude
Rises 02:20:14 0° 299° (WNW) 2,542 6.8 -15.0°
Reaches altitude 10° 02:23:08 10° 323° (NW) 1,661 6.0 -15.3°
Maximum altitude 02:25:25 15° 0° (N) 1,363 4.9 -15.6°
Drops below altitude 10° 02:27:42 10° 38° (NE) 1,659 4.8 -15.8°
Sets 02:30:36 0° 62° (ENE) 2,537 5.4 -16.1°
